Location: Gesvres
(49.0440°N, 2.8518°E)
Time: 18:46:49
(UTC+00:00)

Meteor 1-11 - Visible Passes

Search period start: 01 October 2023 00:00
Search period end: 11 October 2023 00:00
Orbit: 840 x 886 km, 81.2° (Epoch: 30 September)

Date Brightness Start Highest point End Pass type
(mag) Time Alt. Az. Time Alt. Az. Time Alt. Az.
01 Oct 6.4 19:22:47 10° NE 19:22:52 10° NE 19:22:52 10° NE visible
01 Oct 5.7 21:02:09 10° N 21:05:09 30° NNE 21:05:09 30° NNE visible
01 Oct 6.7 22:45:54 10° NNW 22:47:25 17° NW 22:47:25 17° NW visible
02 Oct 5.6 20:53:52 10° N 20:56:57 30° NNE 20:56:57 30° NNE visible
02 Oct 6.7 22:37:38 10° NNW 22:39:13 17° NW 22:39:13 17° NW visible
03 Oct 5.6 20:45:36 10° N 20:48:46 31° NNE 20:48:46 31° NNE visible
03 Oct 6.6 22:29:20 10° NNW 22:31:02 17° NW 22:31:02 17° NW visible
04 Oct 5.5 20:37:20 10° N 20:40:35 32° NNE 20:40:35 32° NNE visible
04 Oct 6.6 22:21:04 10° NNW 22:22:52 18° NW 22:22:52 18° NW visible
05 Oct 5.4 20:29:04 10° N 20:32:26 33° NNE 20:32:26 33° NNE visible
05 Oct 6.6 22:12:47 10° NNW 22:14:43 19° NW 22:14:43 19° NW visible
06 Oct 5.3 20:20:48 10° N 20:24:17 34° NNE 20:24:17 34° NNE visible
06 Oct 6.5 22:04:30 10° NNW 22:06:34 19° NW 22:06:34 19° NW visible
07 Oct 5.2 20:12:31 10° N 20:16:09 35° NNE 20:16:09 35° NNE visible
07 Oct 6.5 21:56:13 10° NNW 21:58:26 20° NW 21:58:26 20° NW visible
08 Oct 5.1 20:04:15 10° N 20:08:03 37° NNE 20:08:03 37° NNE visible
08 Oct 6.4 21:47:56 10° NNW 21:50:20 21° NW 21:50:20 21° NW visible
09 Oct 5.0 19:55:58 10° N 19:59:57 38° NNE 19:59:57 38° NNE visible
09 Oct 6.3 21:39:39 10° NNW 21:42:14 22° NW 21:42:14 22° NW visible
10 Oct 4.9 19:47:42 10° N 19:51:53 40° NNE 19:51:53 40° NNE visible
10 Oct 6.3 21:31:22 10° NNW 21:34:10 23° NW 21:34:10 23° NW visible
